User: anonymous   Login
Location: Oronoko Observatory
(41.9167°N, 86.3833°W)
Time: 20:28:18
(UTC-04:00)
Language:

PAYLOAD A - Orbit

View from above orbital plane
View from above orbital plane
View from above satellite
View from above satellite

Ground track
Ground track

The orbit data is extracted from the following two-line orbital elements,

1 27840U 03031A   15214.20943529  .00000033  00000-0  23502-4 0  9997
2 27840 098.2065 230.6967 0098872 024.7760 050.5847 14.38815962634814
Epoch (UTC): 02 August 2015 05:01:35
Eccentricity: 0.0098872
inclination: 98.2065°
perigee height: 692 km
apogee height: 833 km
right ascension of ascending node: 230.6967°
argument of perigee: 24.7760°
revolutions per day: 14.38815962
mean anomaly at epoch: 50.5847°
orbit number at epoch: 63481

The dashed part of the orbit path shows where the satellite is in the earth's shadow,  

DLR